Вернуться в каталог

STARLINK-32235

АктивенСвязьVLEO
NORAD 60739·PAYLOAD·🇺🇸 United States

Запущен Aug 28, 2024 с Cape Canaveral Space Force Station

Loading…

Ближайшие Пролёты (ближайшие 24 часа)

TLE

СвежийSource: CelesTrak SupGP

Эпоха: Sep 14, 2026, 14:04 UTC

1 60739C 24152V   26257.58659722  .00024991  00000+0  73808-3 0  2575
2 60739  53.1574 109.3370 0001372  89.8235 339.3421 15.34389972    10

Отслеживайте STARLINK-32235 в реальном времени с AllMySat

Download on the App Store